Stratford, CT

4:47 AM EST on December 06, 2016 (GMT -0500)
Sikorsky Memorial

Weather History for KBDR - March, 2013

Change the Weather History Date:

Monday, March 4, 2013

  Actual Average Record
Temperature  
Mean Temperature 37 °F 36 °F  
Max Temperature 45 °F 44 °F 58 °F (1974)
Min Temperature 29 °F 28 °F 5 °F (1950)
Degree Days  
Heating Degree Days 28 29  
Month to date heating degree days 111 118  
Since 1 July heating degree days 3734 4005  
Cooling Degree Days 0 0  
Month to date cooling degree days 0 0  
Year to date cooling degree days 0 0  
Moisture  
Dew Point 19 °F    
Average Humidity 50    
Maximum Humidity 63    
Minimum Humidity 37    
Precipitation  
Precipitation 0.00 in 0.12 in 1.32 in (1953)
Month to date precipitation T 0.48  
Year to date precipitation 7.02 6.37  
Snow  
Snow 0.00 in 0.20 in 1.50 in (1971)
Month to date snowfall T 1.0  
Since 1 July snowfall 51.3 22.6  
Snow Depth 0.00 in    
Sea Level Pressure  
Sea Level Pressure 29.76 in    
Wind  
Wind Speed 13 mph (NW)    
Max Wind Speed 24 mph    
Max Gust Speed 33 mph    
Visibility 10 miles    
Events      
T = Trace of Precipitation, MM = Missing Value Source: NWS Daily Summary

Daily Weather History Graph

Daily Weather History Graph

Search for Another Location

Airport or City:

Trip Planner

Search our weather history database for the weather conditions in past years. The results will help you decide how hot, cold, wet, or windy it might be!

Date:

Astronomy

Mar. 04, 2013 Rise Set
Actual Time 6:21 AM EST 5:47 PM EST
Civil Twilight 5:54 AM EST 6:14 PM EST
Nautical Twilight 5:22 AM EST 6:46 PM EST
Astronomical Twilight 4:50 AM EST 7:18 PM EST
Moon 12:30 AM EST (3/4) 10:23 AM EST (3/4)
Length of Visible Light 12h 20m
Length of Day
11h 25m
Waning Gibbous, 52% of the Moon is Illuminated
Mar 4
Waning Gibbous
Mar 4
Last Quarter
Mar 11
New
Mar 19
First Quarter
Mar 27
Full

Hourly Weather History & Observations

Time (EST) Temp. Windchill Dew Point Humidity Pressure Visibility Wind Dir Wind Speed Gust Speed Precip Events Conditions
12:52 AM 30.9 °F 21.2 °F 19.0 °F 61% 29.72 in 10.0 mi WNW 12.7 mph 17.3 mph N/A   Overcast
1:52 AM 30.0 °F 19.5 °F 18.0 °F 61% 29.72 in 10.0 mi NW 13.8 mph 20.7 mph N/A   Overcast
3:52 AM 30.0 °F 21.7 °F 17.1 °F 59% 29.73 in 10.0 mi NW 9.2 mph - N/A   Overcast
4:52 AM 30.0 °F 20.5 °F 17.1 °F 59% 29.74 in 10.0 mi NW 11.5 mph 17.3 mph N/A   Overcast
5:52 AM 28.4 °F 20.4 °F 17.6 °F 64% 29.75 in 10.0 mi NNW 8.1 mph - N/A   Overcast
6:52 AM 28.9 °F 21.9 °F 18.0 °F 64% 29.76 in 10.0 mi WNW 6.9 mph - N/A   Partly Cloudy
7:52 AM 30.9 °F 22.8 °F 19.0 °F 61% 29.77 in 10.0 mi NW 9.2 mph - N/A   Clear
8:52 AM 34.0 °F 24.2 °F 19.9 °F 56% 29.76 in 10.0 mi NW 15.0 mph 19.6 mph N/A   Clear
9:52 AM 36.0 °F 25.6 °F 19.0 °F 50% 29.75 in 10.0 mi NW 18.4 mph 26.5 mph N/A   Clear
10:52 AM 39.0 °F 31.4 °F 19.9 °F 46% 29.75 in 10.0 mi NW 12.7 mph 23.0 mph N/A   Clear
11:52 AM 42.1 °F 34.2 °F 21.0 °F 43% 29.73 in 10.0 mi NW 16.1 mph 24.2 mph N/A   Partly Cloudy
12:52 PM 44.1 °F 37.1 °F 21.0 °F 40% 29.71 in 10.0 mi WNW 15.0 mph 19.6 mph N/A   Clear
1:52 PM 44.1 °F 36.8 °F 21.0 °F 40% 29.71 in 10.0 mi WNW 16.1 mph 23.0 mph N/A   Clear
2:52 PM 44.1 °F 36.5 °F 19.9 °F 38% 29.70 in 10.0 mi WNW 17.3 mph 24.2 mph N/A   Mostly Cloudy
3:52 PM 42.1 °F 33.9 °F 19.9 °F 41% 29.71 in 10.0 mi NW 17.3 mph 28.8 mph N/A   Overcast
4:52 PM 41.0 °F 33.1 °F 19.9 °F 43% 29.73 in 10.0 mi NW 15.0 mph 27.6 mph N/A   Overcast
5:52 PM 37.9 °F 28.9 °F 19.9 °F 48% 29.76 in 10.0 mi NW 16.1 mph 27.6 mph N/A   Partly Cloudy
6:52 PM 36.0 °F 26.7 °F 19.9 °F 52% 29.78 in 10.0 mi WNW 15.0 mph - N/A   Clear
7:52 PM 35.1 °F 25.5 °F 19.0 °F 52% 29.81 in 10.0 mi NNW 15.0 mph 23.0 mph N/A   Clear
8:52 PM 33.1 °F 23.9 °F 19.0 °F 56% 29.83 in 10.0 mi NW 12.7 mph - N/A   Scattered Clouds
9:52 PM 33.1 °F 23.9 °F 19.0 °F 56% 29.84 in 10.0 mi NW 12.7 mph 25.3 mph N/A   Clear
10:52 PM 32.0 °F 21.6 °F 19.9 °F 61% 29.85 in 10.0 mi NW 15.0 mph 20.7 mph N/A   Clear
11:52 PM 33.1 °F 23.4 °F 19.9 °F 59% 29.86 in 10.0 mi NW 13.8 mph 19.6 mph N/A   Overcast